Hays, KS

7:41 AM CDT on July 22, 2017 (GMT -0500)
Hays Regional

Weather History for KHYS - April, 2013

Change the Weather History Date:

Friday, April 26, 2013

  Actual Average Record
Temperature  
Mean Temperature 57 °F -  
Max Temperature 66 °F 64 °F 91 °F (2014)
Min Temperature 48 °F 41 °F 28 °F (2006)
Degree Days  
Heating Degree Days 8    
Growing Degree Days 7 (Base 50)    
Moisture  
Dew Point 45 °F    
Average Humidity 68    
Maximum Humidity 87    
Minimum Humidity 41    
Precipitation  
Precipitation 0.02 in - - ()
Sea Level Pressure  
Sea Level Pressure 30.06 in    
Wind  
Wind Speed 12 mph (SSE)    
Max Wind Speed 26 mph    
Max Gust Speed 34 mph    
Visibility 10 miles    
Events      
Averages and records for this station are not official NWS values.
T = Trace of Precipitation, MM = Missing Value Source: NWS Daily Summary

Daily Weather History Graph

Daily Weather History Graph

Search for Another Location

Airport or City:

Trip Planner

Search our weather history database for the weather conditions in past years. The results will help you decide how hot, cold, wet, or windy it might be!

Date:

Astronomy

Apr. 26, 2013 Rise Set
Actual Time 6:45 AM CDT 8:25 PM CDT
Civil Twilight 6:16 AM CDT 8:53 PM CDT
Nautical Twilight 5:42 AM CDT 9:27 PM CDT
Astronomical Twilight 5:06 AM CDT 10:04 PM CDT
Moon 9:48 PM CDT (4/26) 7:14 AM CDT (4/26)
Length of Visible Light 14h 36m
Length of Day
13h 39m
Full, 99% of the Moon is Illuminated
Apr 26
Full
May 2
Last Quarter
May 9
New
May 17
First Quarter
May 24
Full

Hourly Weather History & Observations

Time (CDT) Temp. Dew Point Humidity Pressure Visibility Wind Dir Wind Speed Gust Speed Precip Events Conditions
12:15 AM 55.4 °F 33.8 °F 44% 30.06 in 10.0 mi SSW 20.7 mph 24.2 mph N/A   Overcast
12:35 AM 57.2 °F 33.8 °F 41% 30.07 in 10.0 mi SW 26.5 mph 34.5 mph N/A   Overcast
12:55 AM 53.6 °F 37.4 °F 54% 30.09 in 9.0 mi SW 16.1 mph 24.2 mph N/A   Overcast
1:15 AM 51.8 °F 39.2 °F 62% 30.07 in 9.0 mi South 12.7 mph 19.6 mph 0.01 in   Overcast
1:35 AM 51.8 °F 37.4 °F 58% 30.06 in 10.0 mi South 11.5 mph 19.6 mph 0.01 in   Overcast
1:55 AM 50.0 °F 37.4 °F 62% 30.07 in 10.0 mi South 9.2 mph - 0.01 in   Mostly Cloudy
2:15 AM 48.2 °F 37.4 °F 66% 30.06 in 10.0 mi South 10.4 mph - N/A   Mostly Cloudy
2:35 AM 48.2 °F 37.4 °F 66% 30.04 in 10.0 mi South 11.5 mph - N/A   Scattered Clouds
2:55 AM 48.2 °F 37.4 °F 66% 30.01 in 10.0 mi South 13.8 mph - N/A   Clear
3:15 AM 50.0 °F 37.4 °F 62% 30.02 in 10.0 mi SSE 5.8 mph - N/A   Mostly Cloudy
3:35 AM 48.2 °F 39.2 °F 71% 30.01 in 10.0 mi South 3.5 mph - N/A   Overcast
3:55 AM 48.2 °F 39.2 °F 71% 30.02 in 10.0 mi Calm Calm - N/A   Overcast
4:15 AM 48.2 °F 39.2 °F 71% 30.01 in 10.0 mi SSW 8.1 mph - N/A   Overcast
4:35 AM 50.0 °F 39.2 °F 66% 30.01 in 10.0 mi South 11.5 mph - 0.01 in   Overcast
4:55 AM 50.0 °F 39.2 °F 66% 29.99 in 10.0 mi South 13.8 mph - 0.01 in   Overcast
5:15 AM 50.0 °F 39.2 °F 66% 29.99 in 10.0 mi South 12.7 mph - N/A   Overcast
5:35 AM 50.0 °F 39.2 °F 66% 29.99 in 10.0 mi South 9.2 mph - N/A   Overcast
5:55 AM 50.0 °F 39.2 °F 66% 30.00 in 10.0 mi South 6.9 mph - N/A   Overcast
6:15 AM 50.0 °F 39.2 °F 66% 30.00 in 10.0 mi South 6.9 mph - N/A   Overcast
6:35 AM 48.2 °F 41.0 °F 76% 30.00 in 10.0 mi South 8.1 mph - N/A   Overcast
6:55 AM 48.2 °F 41.0 °F 76% 29.99 in 10.0 mi South 12.7 mph - N/A   Overcast
7:15 AM 48.2 °F 42.8 °F 82% 30.01 in 10.0 mi Calm Calm - N/A   Overcast
7:35 AM 50.0 °F 42.8 °F 76% 30.01 in 10.0 mi WNW 5.8 mph - N/A   Overcast
7:55 AM 51.8 °F 44.6 °F 76% 30.00 in 8.0 mi West 5.8 mph - N/A   Mostly Cloudy
8:15 AM 51.8 °F 44.6 °F 76% 30.02 in 10.0 mi SSW 6.9 mph - N/A   Partly Cloudy
8:35 AM 51.8 °F 44.6 °F 76% 30.01 in 10.0 mi South 8.1 mph - N/A   Clear
8:55 AM 53.6 °F 44.6 °F 72% 30.02 in 10.0 mi SSW 8.1 mph - N/A   Clear
9:15 AM 55.4 °F 46.4 °F 72% 30.02 in 10.0 mi SSW 10.4 mph - N/A   Clear
9:35 AM 57.2 °F 48.2 °F 72% 30.02 in 10.0 mi SSW 10.4 mph - N/A   Clear
9:55 AM 60.8 °F 46.4 °F 59% 30.02 in 10.0 mi SSW 11.5 mph - N/A   Clear
10:15 AM 60.8 °F 46.4 °F 59% 30.02 in 10.0 mi SSW 11.5 mph - N/A   Clear
10:35 AM 62.6 °F 46.4 °F 55% 30.03 in 10.0 mi SW 10.4 mph - N/A   Clear
10:55 AM 62.6 °F 46.4 °F 55% 30.04 in 10.0 mi South 10.4 mph - N/A   Clear
11:15 AM 64.4 °F 46.4 °F 52% 30.05 in 10.0 mi ESE 4.6 mph - N/A   Clear
11:35 AM 62.6 °F 46.4 °F 55% 30.05 in 10.0 mi SSE 8.1 mph - N/A   Clear
11:55 AM 64.4 °F 48.2 °F 56% 30.05 in 10.0 mi SE 8.1 mph - N/A   Partly Cloudy
12:15 PM 64.4 °F 48.2 °F 56% 30.05 in 10.0 mi ESE 10.4 mph - N/A   Partly Cloudy
12:35 PM 64.4 °F 50.0 °F 59% 30.05 in 10.0 mi SE 9.2 mph - N/A   Clear
12:55 PM 64.4 °F 50.0 °F 59% 30.05 in 10.0 mi ESE 9.2 mph - N/A   Clear
1:15 PM 66.2 °F 48.2 °F 52% 30.05 in 10.0 mi SSE 6.9 mph - N/A   Scattered Clouds
1:35 PM 64.4 °F 50.0 °F 59% 30.04 in 10.0 mi East 12.7 mph - N/A   Mostly Cloudy
1:55 PM 64.4 °F 51.8 °F 64% 30.04 in 10.0 mi SE 10.4 mph 16.1 mph N/A   Overcast
2:15 PM 64.4 °F 50.0 °F 59% 30.04 in 10.0 mi ESE 11.5 mph - N/A   Overcast
2:35 PM 64.4 °F 51.8 °F 64% 30.05 in 10.0 mi ESE 12.7 mph - N/A   Overcast
2:55 PM 66.2 °F 51.8 °F 60% 30.05 in 10.0 mi SE 17.3 mph 20.7 mph N/A   Overcast
3:15 PM 64.4 °F 50.0 °F 59% 30.04 in 10.0 mi SSE 13.8 mph - N/A   Scattered Clouds
3:35 PM 64.4 °F 51.8 °F 64% 30.04 in 10.0 mi SSE 15.0 mph - N/A   Partly Cloudy
3:55 PM 64.4 °F 50.0 °F 59% 30.04 in 10.0 mi SE 11.5 mph - N/A   Scattered Clouds
4:15 PM 62.6 °F 48.2 °F 59% 30.04 in 10.0 mi SE 15.0 mph 18.4 mph N/A   Mostly Cloudy
4:35 PM 64.4 °F 50.0 °F 59% 30.05 in 10.0 mi SE 13.8 mph 20.7 mph N/A   Scattered Clouds
4:55 PM 62.6 °F 48.2 °F 59% 30.05 in 10.0 mi SE 18.4 mph - N/A   Scattered Clouds
5:15 PM 60.8 °F 48.2 °F 63% 30.07 in 10.0 mi SSE 16.1 mph - N/A   Partly Cloudy
5:35 PM 57.2 °F 46.4 °F 67% 30.07 in 10.0 mi SSE 13.8 mph - N/A   Scattered Clouds
5:55 PM 57.2 °F 46.4 °F 67% 30.07 in 10.0 mi SSE 15.0 mph - N/A   Scattered Clouds
6:15 PM 55.4 °F 48.2 °F 77% 30.07 in 10.0 mi SSE 13.8 mph - N/A   Scattered Clouds
6:35 PM 55.4 °F 48.2 °F 77% 30.09 in 10.0 mi SSE 10.4 mph - N/A   Mostly Cloudy
6:55 PM 55.4 °F 48.2 °F 77% 30.09 in 10.0 mi SSE 10.4 mph - N/A   Mostly Cloudy
7:15 PM 53.6 °F 48.2 °F 82% 30.10 in 10.0 mi SSE 9.2 mph - N/A   Mostly Cloudy
7:35 PM 53.6 °F 48.2 °F 82% 30.10 in 10.0 mi SSE 11.5 mph - N/A   Overcast
7:55 PM 53.6 °F 46.4 °F 77% 30.11 in 10.0 mi SSE 10.4 mph - N/A   Mostly Cloudy
8:15 PM 53.6 °F 46.4 °F 77% 30.12 in 10.0 mi SE 9.2 mph - N/A   Mostly Cloudy
8:35 PM 51.8 °F 46.4 °F 82% 30.12 in 10.0 mi SE 6.9 mph - N/A   Mostly Cloudy
8:55 PM 51.8 °F 46.4 °F 82% 30.13 in 10.0 mi SE 5.8 mph - N/A   Mostly Cloudy
9:15 PM 51.8 °F 46.4 °F 82% 30.13 in 10.0 mi SE 5.8 mph - N/A   Mostly Cloudy
9:35 PM 50.0 °F 46.4 °F 87% 30.14 in 10.0 mi SE 4.6 mph - N/A   Scattered Clouds
9:55 PM 51.8 °F 46.4 °F 82% 30.15 in 10.0 mi SE 4.6 mph - N/A   Overcast
10:15 PM 51.8 °F 46.4 °F 82% 30.17 in 10.0 mi Calm Calm - N/A   Overcast
10:35 PM 51.8 °F 46.4 °F 82% 30.17 in 10.0 mi Calm Calm - N/A   Overcast
10:55 PM 51.8 °F 46.4 °F 82% 30.18 in 10.0 mi Calm Calm - N/A   Overcast
11:15 PM 51.8 °F 46.4 °F 82% 30.17 in 10.0 mi Calm Calm - N/A   Overcast
11:35 PM 50.0 °F 46.4 °F 87% 30.17 in 10.0 mi Calm Calm - N/A   Overcast
11:55 PM 50.0 °F 46.4 °F 87% 30.17 in 10.0 mi Calm Calm - N/A   Overcast